Date,TemperatureHighF,TemperatureAvgF,TemperatureLowF,DewpointHighF,DewpointAvgF,DewpointLowF,HumidityHigh,HumidityAvg,HumidityLow,PressureMaxIn,PressureMinIn,WindSpeedMaxMPH,WindSpeedAvgMPH,GustSpeedMaxMPH,PrecipitationSumIn
2013-2-1,26,20,11,-100,-100,-100,0,0,100,0.00,40.00,0,-999,0,0.00
2013-2-2,48,37,27,-100,-100,-100,0,0,100,0.00,40.00,0,-999,0,0.00
2013-2-3,49,40,33,-100,-100,-100,0,0,100,0.00,40.00,0,-999,0,0.00
2013-2-4,47,39,29,-100,-100,-100,0,0,100,0.00,40.00,0,-999,0,0.00
2013-2-5,58,41,27,-100,-100,-100,0,0,100,0.00,40.00,0,-999,0,0.00
2013-2-6,60,45,32,-100,-100,-100,0,0,100,0.00,40.00,0,-999,0,0.00
2013-2-7,50,45,32,-100,-100,-100,0,0,100,0.00,40.00,0,-999,0,0.00
2013-2-8,40,34,29,-100,-100,-100,0,0,100,0.00,40.00,0,-999,0,0.00
2013-2-9,46,35,29,-100,-100,-100,0,0,100,0.00,40.00,0,-999,0,0.00
2013-2-10,51,44,36,-100,-100,-100,0,0,100,0.00,40.00,0,-999,0,0.00
2013-2-11,48,37,31,-100,-100,-100,0,0,100,0.00,40.00,0,-999,0,0.00
2013-2-12,43,37,32,-100,-100,-100,0,0,100,0.00,40.00,0,-999,0,0.00
2013-2-13,54,40,29,-100,-100,-100,0,0,100,0.00,40.00,0,-999,0,0.00
2013-2-14,50,43,36,-100,-100,-100,0,0,100,0.00,40.00,0,-999,0,0.00
2013-2-15,37,31,23,-100,-100,-100,0,0,100,0.00,40.00,0,-999,0,0.00
2013-2-16,35,30,21,-100,-100,-100,0,0,100,0.00,40.00,0,-999,0,0.00
2013-2-17,58,42,29,-100,-100,-100,0,0,100,0.00,40.00,0,-999,0,0.00
2013-2-18,54,44,30,-100,-100,-100,0,0,100,0.00,40.00,0,-999,0,0.00
2013-2-19,36,30,24,-100,-100,-100,0,0,100,0.00,40.00,0,-999,0,0.00
2013-2-20,26,22,17,-100,-100,-100,0,0,100,0.00,40.00,0,-999,0,0.00
2013-2-21,29,24,20,-100,-100,-100,0,0,100,0.00,40.00,0,-999,0,0.00
2013-2-22,30,25,19,-100,-100,-100,0,0,100,0.00,40.00,0,-999,0,0.00
2013-2-23,36,24,12,-100,-100,-100,0,0,100,0.00,40.00,0,-999,0,0.00
2013-2-24,42,32,21,-100,-100,-100,0,0,100,0.00,40.00,0,-999,0,0.00
2013-2-25,36,31,27,-100,-100,-100,0,0,100,0.00,40.00,0,-999,0,0.00
2013-2-26,35,33,31,-100,-100,-100,0,0,100,0.00,40.00,0,-999,0,0.00
2013-2-27,36,32,29,-100,-100,-100,0,0,100,0.00,40.00,0,-999,0,0.00
2013-2-28,34,32,29,-100,-100,-100,0,0,100,0.00,40.00,0,-999,0,0.00